Home > Weather > Oberlin > Past weeks

Flag for U.S.A. Weather for the Past 2 Weeks in Oberlin, Ohio, U.S.A.

Now
34 °F

Sunny.


Feels Like: 26 °F
Forecast: 30 / 49 °F
Wind: 10 mph from South

Location: Lorain County Regional Airport

Current Time: Feb 7, 2016 at 10:14:04 AM

Latest Report: Feb 7, 2016 at 8:53 AM


Visibility: 10 mi

Pressure: 30.05 "Hg

Humidity: 67%

Dew point: 24 °F

Location of OberlinLocation

Historic Weather in Oberlin — Graph

°F

Oberlin Temperature Yesterday

Maximum temperature yesterday: 38 °F (at 2:53 PM)
Minimum temperature yesterday: 25 °F (at 6:53 AM)
Average temperature yesterday: 31 °F

High & Low Weather Summary for the Past Weeks

 TemperatureHumidityPressure
High60 °F (Feb 3, 10:53 AM)100% (Jan 23, 10:53 PM)30.42 "Hg (Jan 23, 10:53 PM)
Low1 °F (Jan 23, 10:53 PM)39% (Feb 2, 2:53 PM)29.50 "Hg (Feb 3, 5:53 AM)
Average35 °F69%29.99 "Hg
* Reported Jan 23 7:53 AM — Feb 7 7:53 AM, Oberlin, Weather by CustomWeather, © 2016

Note: Actual official high and low records may vary slightly from our data, if they occured in-between our weather recording intervals... More about our weather records

Advertising

Oberlin Weather History for the Previous 24 Hours

 ConditionsComfort  
Time TempWeatherWind HumidityBarometerVisibility
7:53 AM
Sun, Feb 7
31 °FPassing clouds.8 mph69%30.06 "Hg10 mi
6:53 AM30 °FPassing clouds.7 mph69%30.07 "Hg10 mi
5:53 AM29 °FPassing clouds.8 mph72%30.10 "Hg10 mi
4:53 AM29 °FClear.7 mph69%30.12 "Hg10 mi
3:53 AM28 °FClear.7 mph72%30.14 "Hg10 mi
2:53 AM29 °FClear.7 mph69%30.16 "Hg10 mi
1:53 AM29 °FClear.7 mph66%30.17 "Hg10 mi
12:53 AM29 °FClear.6 mph66%30.19 "Hg10 mi
11:53 PM
Sat, Feb 6
29 °FClear.6 mph66%30.20 "Hg10 mi
10:53 PM28 °FClear.3 mph72%30.22 "Hg10 mi
9:53 PM30 °FClear.3 mph66%30.22 "Hg10 mi
8:53 PM29 °FClear.6 mph72%30.23 "Hg10 mi
7:53 PM31 °FClear.7 mph67%30.24 "Hg10 mi
6:53 PM33 °FClear.7 mph61%30.24 "Hg10 mi
5:53 PM34 °FClear.8 mph61%30.24 "Hg10 mi
4:53 PM37 °FSunny.14 mph54%30.24 "Hg10 mi
3:53 PM38 °FSunny.14 mph55%30.23 "Hg10 mi
2:53 PM38 °FPassing clouds.12 mph55%30.24 "Hg10 mi
1:53 PM37 °FSunny.14 mph57%30.25 "Hg10 mi
12:53 PM35 °FSunny.9 mph59%30.28 "Hg10 mi
11:53 AM34 °FSunny.9 mph56%30.32 "Hg10 mi
10:53 AM32 °FSunny.8 mph64%30.34 "Hg10 mi
Weather by CustomWeather, © 2016

See weather overviewHow to use our weather pages